loading
|

TITAN 3C TRANSTAGE DEB, 1642

Orbit data source: Space-Track

TITAN 3C TRANSTAGE DEB, 1642 is space debris in LEO originally from a launch on Fri, 15 Oct 1965 UTC launched from the Air Force Eastern Test Range (AFETR). Debris objects in space refer to the collection of defunct objects orbiting the Earth. Examples of debris include non-operational satellites, rocket bodies, and fragments generated from explosions, collisions, or faulty payload assembly.

Loading next visibility...
Loading greatness...
TITAN 3C TRANSTAGE DEB details
Identifier
1642, 1965-082D
Orbit
LEO
Last TLE update11 hours ago
Origin
Flag of USUSAF SSD (US)
ManufacturerUnknown
MissionSpacecraft
Bus & MotorUnknown bus, Unknown motor
MassUnknown
Launch date (UTC)
1965-10-15 (59 years ago)
Launch vehicleUnknown
Launch site
Air Force Eastern Test Range (AFETR)
Object type
Payload
Rocket body
Debris
Shape & HBRUnknown
Radar Cross Section2.300 m², Large (>1 m²)

Expand to show TLE details & history

TLE from 11 hours ago
0 TITAN 3C TRANSTAGE DEB
1 01642U 65082D   24284.49697568  .00004448  00000-0  53742-3 0  9992
2 01642  32.0952 347.6607 0023779 349.0178  10.9951 14.82322848146221
Epoch: 2024-10-10T11:55Z
Definitive object data (Epoch: 2024-10-10T11:55:38.698Z)
Latitude-0.00004°
Longitude149.16871°
Altitude604.301 km
Speed7.568 km/s
True Right ascension23h 10m 38s
True Declination0° 00' 00"
Sunlit
Object was in full shadow at TLE epoch
Predictive object data (real-time)
Latitude6.35778°
Longitude156.45329°
Altitude604.246 km
Speed7.569 km/s
Apparent Right ascension01h 59m 51s
Apparent Declination-21° 09' 01"
Sunlit
Object is in full shadow
Predictive observer data (real-time)
Local Sidereal Time17:37:24
Azimuth84.594° E
Elevation-40.396°
Doppler factor1
Orbital elements
Apogee642.289 km
Perigee608.98 km
Semi-major axis7,003.772 km
Eccentricity0.0023779
Inclination32.0952°
RAAN347.6607°
Arg. of periapsis349.0178°
True anomaly11.04722°
Mean anomaly10.9951°
Eccentric anomaly11.02115°
Mean motion3.70293 °/min
BSTAR0.00053742
Period97.22 mins
No data available

TITAN 3C TRANSTAGE DEB Visibility forecast

Observer location: 39.9160978°, -105.1181434

TITAN 3C TRANSTAGE DEB is not visible in the next 10 days
Span
Click to sort rows by Start time (UTC) header in descending order
Start Az.
Max El. time (UTC)
Max El. Az.
Max El.
End time (UTC)
End Az.